Los Angeles, CA

2:40 PM PDT on May 24, 2017 (GMT -0700)
Los Angeles International

Weather History for KLAX - December, 2011

Change the Weather History Date:

Tuesday, December 6, 2011

  Actual Average Record
Temperature  
Mean Temperature 51 °F 57 °F  
Max Temperature 60 °F 65 °F 85 °F (1979)
Min Temperature 41 °F 49 °F 39 °F (1960)
Degree Days  
Heating Degree Days 14 8  
Month to date heating degree days 60 45  
Since 1 July heating degree days 299 227  
Cooling Degree Days 0 0  
Month to date cooling degree days 0 0  
Year to date cooling degree days 401 550  
Growing Degree Days 3 (Base 50)    
Moisture  
Dew Point 24 °F    
Average Humidity 39    
Maximum Humidity 61    
Minimum Humidity 16    
Precipitation  
Precipitation 0.00 in 0.06 in 1.51 in (1997)
Month to date precipitation 0.00 0.31  
Year to date precipitation 9.20 11.08  
Since 1 July precipitation 2.33  
Sea Level Pressure  
Sea Level Pressure 30.29 in    
Wind  
Wind Speed 4 mph (NNW)    
Max Wind Speed 16 mph    
Max Gust Speed 21 mph    
Visibility 10 miles    
Events      
T = Trace of Precipitation, MM = Missing Value Source: NWS Daily Summary

Daily Weather History Graph

Daily Weather History Graph

Search for Another Location

Airport or City:

Trip Planner

Search our weather history database for the weather conditions in past years. The results will help you decide how hot, cold, wet, or windy it might be!

Date:

Astronomy

Dec. 06, 2011 Rise Set
Actual Time 6:44 AM PST 4:44 PM PST
Civil Twilight 6:17 AM PST 5:11 PM PST
Nautical Twilight 5:46 AM PST 5:42 PM PST
Astronomical Twilight 5:15 AM PST 6:13 PM PST
Moon 2:09 PM PST (12/6) 3:13 AM PST (12/6)
Length of Visible Light 10h 54m
Length of Day
9h 59m
Waxing Gibbous, 87% of the Moon is Illuminated
Dec 6
Waxing Gibbous
Dec 10
Full
Dec 17
Last Quarter
Dec 24
New
Dec 31
First Quarter

Hourly Weather History & Observations

Time (PST) Temp. Windchill Dew Point Humidity Pressure Visibility Wind Dir Wind Speed Gust Speed Precip Events Conditions
12:53 AM 51.1 °F - 18.1 °F 27% 30.28 in 10.0 mi North 3.5 mph - N/A   Clear
1:53 AM 48.9 °F - 15.6 °F 27% 30.28 in 10.0 mi Calm Calm - N/A   Clear
2:53 AM 49.3 °F - 12.7 °F 23% 30.28 in 10.0 mi Calm Calm - N/A   Clear
3:53 AM 50.5 °F - 23.0 °F 34% 30.28 in 10.0 mi Calm Calm - N/A   Clear
4:53 AM 46.2 °F 45.0 °F 18.0 °F 32% 30.28 in 10.0 mi East 3.5 mph - N/A   Partly Cloudy
5:53 AM 46.2 °F 45.0 °F 18.0 °F 32% 30.30 in 10.0 mi East 3.5 mph - N/A   Scattered Clouds
6:53 AM 46.4 °F 43.5 °F 17.6 °F 32% 30.30 in 10.0 mi NE 5.8 mph - N/A   Partly Cloudy
7:53 AM 46.0 °F - 18.5 °F 33% 30.32 in 10.0 mi Calm Calm - N/A   Partly Cloudy
8:53 AM 50.2 °F - 18.3 °F 28% 30.33 in 10.0 mi East 4.6 mph - N/A   Partly Cloudy
9:53 AM 55.4 °F - 21.2 °F 26% 30.34 in 10.0 mi Calm Calm - N/A   Partly Cloudy
10:53 AM 58.3 °F - 17.1 °F 20% 30.32 in 10.0 mi Calm Calm - N/A   Clear
11:53 AM 60.1 °F - 16.9 °F 19% 30.29 in 10.0 mi Calm Calm - N/A   Clear
12:53 PM 59.5 °F - 13.5 °F 16% 30.28 in 10.0 mi WSW 10.4 mph - N/A   Clear
1:53 PM 58.3 °F - 28.2 °F 32% 30.27 in 10.0 mi West 13.8 mph - N/A   Clear
2:53 PM 59.4 °F - 18.0 °F 20% 30.27 in 10.0 mi West 11.5 mph - N/A   Clear
3:53 PM 57.0 °F - 30.0 °F 36% 30.27 in 10.0 mi West 11.5 mph - N/A   Clear
4:53 PM 55.6 °F - 37.6 °F 51% 30.27 in 10.0 mi West 8.1 mph - N/A   Partly Cloudy
5:53 PM 55.0 °F - 41.4 °F 60% 30.27 in 10.0 mi WNW 5.8 mph - N/A   Clear
6:53 PM 54.1 °F - 41.2 °F 62% 30.29 in 10.0 mi Calm Calm - N/A   Clear
7:53 PM 53.6 °F - 37.6 °F 55% 30.30 in 10.0 mi Calm Calm - N/A   Clear
8:53 PM 53.4 °F - 36.0 °F 52% 30.31 in 10.0 mi ENE 3.5 mph - N/A   Clear
9:53 PM 51.4 °F - 32.5 °F 49% 30.31 in 10.0 mi East 5.8 mph - N/A   Clear
10:53 PM 51.3 °F - 25.3 °F 37% 30.29 in 10.0 mi Variable 3.5 mph - N/A   Clear
11:53 PM 53.8 °F - 15.4 °F 22% 30.27 in 10.0 mi Variable 6.9 mph - N/A   Clear